Wind_Speed
27 34 37 37 42 42 40 37 38 36 34 32 32 30 26 26 23 22 20 17 19 20 21 19 17 16 10 7 7 15 9 8 11 23 26 41 35 32 33 41 46 38 35 36 31 21 21
27 28 34 35 40 42 44 39 39 37 35 34 33 31 26 25 23 21 20 17 17 19 20 18 17 15 12 8 14 14 10 8 10 18 31 37 29 33 30 26 39 31 41 33 20 28 25
29 34 33 34 36 40 41 38 38 39 35 35 35 31 25 24 24 19 19 17 15 17 19 18 16 16 13 11 15 13 11 10 11 14 28 21 37 37 21 24 27 36 30 23 37 32 28
34 37 36 26 36 36 39 37 40 40 37 36 35 31 24 23 23 18 19 16 15 16 19 17 13 17 14 9 14 16 13 6 8 13 26 30 36 35 24 27 22 24 31 16 21 29 27
31 34 32 35 34 36 38 40 39 40 37 35 34 29 23 23 21 17 18 15 15 15 16 18 11 18 8 12 13 15 10 7 9 16 22 40 27 32 26 25 24 20 24 16 9 23 19
36 35 35 35 35 36 39 39 37 40 38 35 33 28 22 21 18 16 17 13 13 13 13 16 13 13 16 25 25 16 8 5 4 6 33 28 27 30 26 29 24 22 13 24 20 13 24
38 40 36 38 38 37 39 37 35 41 38 35 33 25 21 19 17 16 15 12 11 9 11 14 12 14 17 22 11 10 9 6 10 8 27 34 20 28 32 29 20 22 13 21 23 15 9
40 40 40 38 39 34 36 34 33 39 37 35 31 24 20 18 15 13 13 10 9 8 10 16 12 14 9 14 15 13 12 10 4 6 12 24 18 21 13 19 12 19 19 10 12 16 11
39 41 42 41 39 35 34 35 33 37 35 33 29 23 19 16 13 12 11 10 9 5 6 12 9 13 11 13 18 14 14 11 8 10 16 21 21 14 19 17 15 16 21 24 14 16 13
40 41 43 42 38 39 35 32 33 34 33 31 27 22 18 14 13 11 9 9 7 3 3 7 9 11 10 15 17 10 16 10 10 10 23 13 23 16 19 13 12 19 14 13 12 13 4
43 42 43 46 37 40 31 29 34 32 30 29 25 20 16 13 11 9 9 7 4 1 0 4 7 7 12 9 11 15 13 8 6 8 10 15 11 20 14 11 9 12 15 11 10 10 3
48 44 43 47 40 44 30 30 32 29 28 26 23 19 14 11 10 8 7 5 1 1 1 2 5 7 9 11 15 13 13 9 9 9 12 20 19 14 15 13 10 17 16 9 8 3 3
52 47 47 48 45 38 32 30 30 28 26 24 21 17 14 10 7 7 6 3 2 2 4 4 2 3 4 10 12 13 10 10 4 10 11 16 13 11 17 12 12 14 18 5 2 1 3
52 49 47 49 44 38 34 28 30 27 24 22 18 15 14 9 5 6 5 1 2 1 2 5 7 5 3 4 7 11 12 5 11 12 11 5 5 10 16 13 13 18 16 4 3 4 5
40 49 44 47 45 38 37 29 25 23 23 20 17 14 13 7 4 6 5 2 1 4 6 10 8 4 3 1 7 8 9 6 12 10 5 6 3 13 21 17 16 14 9 7 1 2 3
38 49 41 46 42 42 36 32 24 24 22 19 15 14 12 5 4 6 6 4 4 11 11 11 2 3 5 6 5 6 6 9 12 12 9 4 7 16 17 14 12 11 8 3 2 1 2
35 43 46 34 33 41 46 37 32 26 21 17 15 14 10 5 5 6 5 5 5 12 16 11 2 5 5 8 7 7 8 11 9 18 10 7 3 8 14 14 17 14 12 6 6 3 1
33 42 43 30 38 44 46 37 34 26 19 15 14 14 9 6 6 7 6 7 10 16 8 10 9 5 6 7 7 6 5 6 16 17 8 7 7 7 9 11 16 18 14 13 5 3 4
31 41 32 30 41 39 50 31 32 27 17 14 14 13 9 7 6 8 6 7 11 13 9 6 5 9 12 7 4 6 6 8 15 19 8 9 3 7 6 9 16 19 21 19 16 11 6
36 34 26 29 30 41 44 31 36 24 15 13 12 9 6 8 8 9 7 6 10 15 10 9 6 9 13 7 5 7 4 12 12 20 14 14 7 3 4 2 5 17 27 21 17 14 17
40 28 23 31 27 38 31 31 29 23 15 14 13 11 6 3 8 10 12 9 10 12 12 9 7 8 8 7 6 7 5 5 16 20 18 13 7 11 7 6 6 8 10 21 26 29 17
30 41 21 37 33 37 29 28 32 19 16 14 14 13 8 8 8 12 14 15 11 10 11 11 8 10 10 10 7 7 4 6 8 16 17 13 6 10 11 12 12 11 12 16 24 27 28
24 34 15 35 29 39 27 29 31 15 14 13 10 12 9 7 10 12 10 11 15 14 12 11 9 10 12 10 8 12 10 8 4 4 12 10 13 6 3 10 10 11 18 20 18 18 23
22 30 22 24 28 33 25 30 25 14 12 13 13 14 12 9 12 13 14 16 17 16 12 16 12 12 12 11 10 8 6 8 9 9 8 8 10 8 1 3 1 5 8 8 15 18 16
21 25 35 36 35 29 29 33 25 17 13 15 15 14 15 14 13 15 16 16 18 16 13 10 14 15 11 10 9 5 3 5 6 9 10 9 10 3 3 7 6 15 13 9 7 7 12
20 27 38 38 43 24 32 36 25 18 17 17 15 16 17 14 17 15 16 16 16 18 16 13 11 11 14 15 11 7 7 6 6 4 12 12 11 8 4 3 3 3 3 3 7 8 8
19 27 34 24 40 27 34 33 31 23 19 17 17 19 17 14 9 17 18 19 20 18 14 16 13 13 14 17 13 7 6 6 7 7 6 14 12 12 10 7 6 6 6 8 5 6 10
3 21 29 31 33 27 32 34 28 22 20 19 18 19 17 15 10 16 15 17 19 18 18 12 16 16 16 12 12 7 3 6 6 5 7 8 9 11 13 7 7 8 10 9 9 11 10
8 24 24 21 20 27 34 32 32 20 20 20 20 17 15 16 11 17 17 17 18 18 19 16 18 14 15 15 11 9 6 6 7 6 11 7 10 6 7 7 10 9 12 11 14 13 14
Wind_Direction
332 327 325 331 333 337 332 338 342 342 342 338 339 334 332 327 322 328 327 321 323 328 325 330 329 313 313 313 287 296 288 276 264 193 204 187 190 195 194 201 202 205 201 192 200 159 179
321 328 323 320 318 327 330 332 338 341 340 337 339 335 333 327 324 326 328 319 324 327 326 331 332 317 303 293 273 289 277 266 262 214 191 188 194 196 207 200 209 199 220 212 202 163 166
311 317 312 316 316 321 329 327 336 337 337 336 337 336 333 328 324 324 327 318 319 330 329 331 329 324 307 268 280 286 273 252 271 247 165 200 189 194 186 187 221 211 184 208 212 192 185
305 309 320 310 321 319 327 326 335 334 334 337 337 336 334 330 324 324 329 319 316 329 340 338 327 328 314 320 275 275 266 251 257 261 212 181 187 190 179 182 206 224 230 212 165 188 193
294 301 307 312 315 319 324 324 327 331 332 336 336 336 333 332 325 326 331 321 321 323 336 344 329 335 320 308 284 278 272 231 263 202 184 174 182 178 170 184 189 205 212 211 159 202 204
294 293 298 310 314 314 316 321 328 330 330 336 337 336 333 332 327 329 333 323 326 328 340 346 347 352 331 307 307 262 241 225 174 225 176 181 183 181 185 184 182 204 214 217 211 207 215
295 292 291 298 305 307 311 316 322 326 328 334 336 336 333 333 330 335 336 327 322 332 360 360 347 324 321 323 313 134 166 131 176 141 175 196 174 175 183 183 183 199 139 186 225 226 266
292 292 289 292 292 301 308 315 317 320 325 330 336 335 333 332 331 337 339 331 326 329 4 10 358 341 331 39 89 124 131 124 165 85 146 165 198 147 170 162 188 193 181 179 157 215 215
287 287 286 286 289 292 299 309 315 317 322 327 335 333 332 329 333 339 337 337 323 325 13 358 21 36 55 84 98 117 122 127 101 119 141 145 176 180 163 185 185 183 180 183 209 176 184
276 279 281 279 280 284 292 299 309 314 318 325 334 331 330 328 333 338 332 335 328 313 69 17 29 26 52 93 106 117 106 112 128 122 120 132 147 149 165 148 161 160 176 163 159 171 183
271 270 272 274 273 275 276 293 298 309 314 322 332 329 328 328 328 337 333 339 329 76 199 7 40 34 75 102 88 120 113 136 73 114 101 147 119 142 142 141 154 145 159 164 154 170 348
261 255 260 266 266 274 265 284 289 305 311 318 328 328 324 327 327 332 328 336 14 47 143 69 85 51 60 87 97 116 119 110 129 124 97 137 144 142 139 163 145 150 149 133 152 130 298
242 240 247 255 260 257 260 275 285 303 307 314 324 328 318 326 329 323 323 321 64 343 163 109 124 91 167 101 102 117 143 137 123 127 86 147 145 137 116 147 130 151 150 115 96 200 212
251 228 237 247 257 255 256 266 277 298 302 308 319 324 315 320 318 310 308 263 114 142 136 148 142 97 156 93 91 115 129 145 159 157 121 116 151 169 143 136 155 162 159 129 189 181 169
258 230 230 241 251 253 249 251 273 291 298 303 313 317 310 308 302 295 273 155 225 143 163 156 140 95 83 203 124 131 118 140 170 151 127 131 129 181 181 164 159 173 225 229 354 1 112
255 232 224 234 242 247 248 246 260 275 293 297 304 311 306 291 288 277 240 199 185 160 150 152 153 185 153 198 177 155 136 178 168 164 142 89 116 186 182 181 179 173 190 181 85 68 233
256 244 218 227 232 246 246 246 261 263 286 289 295 304 301 275 268 252 209 186 185 163 152 180 151 167 158 165 187 174 192 177 172 187 152 137 162 168 193 195 197 188 185 156 169 235 186
259 253 234 229 218 243 243 247 245 257 277 278 285 291 294 270 220 223 199 188 185 174 168 173 155 146 172 180 156 179 246 198 187 192 150 166 160 153 181 184 197 195 209 199 175 203 232
272 257 237 227 222 231 244 260 245 251 266 264 273 287 277 252 223 204 192 186 186 184 188 159 169 161 148 159 158 209 207 196 187 173 170 166 162 129 186 240 228 221 206 199 213 231 225
285 265 243 214 216 242 240 254 239 244 249 251 261 268 265 238 227 199 170 201 183 194 183 186 182 179 168 183 164 194 205 192 188 185 191 179 178 200 167 164 207 229 227 217 213 217 224
293 222 224 196 209 238 235 248 236 236 230 237 248 259 250 215 210 200 164 194 183 188 198 199 183 154 166 164 152 162 200 197 196 199 202 199 203 229 230 221 219 248 229 221 222 229 226
286 225 238 200 199 224 230 233 231 223 220 226 239 251 243 235 207 192 179 180 184 185 193 196 153 187 175 182 168 180 201 174 181 206 216 227 228 240 240 254 259 245 232 221 225 236 245
278 243 242 202 214 225 225 225 225 219 214 226 232 233 231 219 204 191 189 175 178 208 196 182 180 185 179 206 170 161 180 175 219 229 202 211 224 231 222 241 247 268 251 247 246 238 232
254 261 205 193 221 222 239 215 227 220 210 216 221 222 222 216 200 185 177 188 187 198 203 211 197 172 201 207 198 196 202 215 221 199 198 217 211 197 240 178 245 248 256 257 235 246 243
248 204 199 201 198 206 228 221 220 213 204 211 215 214 211 210 197 193 194 200 197 191 207 208 206 209 202 186 149 149 190 224 225 218 213 200 211 187 202 212 273 275 271 248 206 220 227
254 246 198 200 199 209 218 223 209 206 197 204 206 207 210 208 206 200 195 197 190 193 207 213 200 195 194 182 164 182 198 197 198 202 213 206 208 212 197 273 280 221 253 189 169 179 216
280 246 200 211 209 210 218 222 209 195 195 198 202 206 211 209 209 205 193 193 190 189 201 212 209 195 189 190 181 186 212 185 170 200 218 211 216 228 235 234 249 249 257 258 237 193 216
240 191 205 212 220 201 218 213 198 189 186 195 202 207 209 208 213 208 201 193 194 196 199 193 196 201 194 177 198 195 203 211 211 231 209 210 205 220 227 236 254 245 260 242 223 228 237
171 167 191 235 221 213 214 217 189 181 185 194 204 210 209 207 224 203 200 192 202 208 212 203 199 202 197 188 191 189 170 195 187 217 223 216 212 216 207 222 242 254 266 268 248 259 263
Height
3137 3134 3130 3126 3122 3117 3113 3107 3103 3098 3092 3087 3081 3076 3071 3067 3063 3059 3054 3051 3047 3043 3038 3034 3030 3028 3028 3027 3026 3021 3021 3020 3021 3023 3029 3036 3044 3050 3052 3060 3069 3072 3078 3084 3089 3090 3100
3135 3131 3128 3125 3120 3115 3110 3105 3100 3095 3090 3085 3079 3074 3067 3064 3060 3056 3051 3048 3045 3041 3037 3032 3029 3027 3026 3026 3023 3020 3020 3020 3021 3024 3029 3035 3042 3048 3056 3061 3066 3068 3077 3082 3075 3085 3096
3133 3129 3125 3122 3118 3113 3107 3103 3097 3092 3087 3082 3076 3071 3065 3060 3057 3053 3048 3046 3043 3040 3035 3031 3028 3025 3024 3024 3021 3020 3018 3020 3019 3020 3025 3033 3039 3044 3051 3059 3064 3071 3075 3081 3078 3085 3093
3129 3126 3122 3118 3116 3111 3105 3101 3094 3090 3084 3079 3074 3068 3063 3057 3054 3050 3046 3043 3041 3038 3034 3029 3027 3024 3022 3020 3019 3018 3017 3020 3019 3017 3024 3027 3036 3044 3050 3058 3064 3068 3072 3075 3070 3082 3088
3124 3121 3118 3116 3112 3107 3103 3098 3093 3087 3082 3076 3071 3065 3060 3054 3051 3048 3044 3041 3039 3037 3033 3029 3026 3022 3020 3019 3017 3017 3017 3018 3018 3020 3021 3028 3035 3044 3051 3056 3060 3066 3069 3065 3074 3084 3087
3119 3116 3114 3112 3108 3103 3100 3095 3090 3084 3079 3074 3069 3063 3058 3052 3048 3045 3042 3040 3037 3035 3033 3028 3024 3023 3020 3016 3011 3012 3017 3017 3019 3021 3025 3031 3037 3043 3047 3053 3057 3062 3065 3068 3079 3088 3092
3113 3112 3108 3107 3104 3100 3096 3092 3087 3082 3076 3071 3065 3060 3056 3050 3047 3043 3040 3038 3038 3035 3032 3028 3026 3022 3019 3013 3008 3010 3016 3019 3021 3024 3027 3032 3036 3039 3044 3052 3062 3065 3070 3076 3081 3085 3088
3107 3105 3103 3100 3098 3094 3092 3088 3084 3079 3073 3069 3063 3058 3053 3048 3044 3041 3039 3037 3034 3035 3032 3028 3026 3022 3019 3016 3014 3017 3018 3022 3024 3025 3029 3035 3039 3044 3051 3056 3062 3067 3071 3077 3080 3085 3090
3098 3098 3096 3094 3091 3088 3087 3084 3080 3075 3070 3066 3061 3056 3051 3047 3042 3040 3038 3036 3033 3033 3032 3030 3027 3024 3022 3021 3020 3020 3022 3025 3028 3030 3032 3036 3041 3047 3051 3057 3063 3067 3072 3076 3080 3083 3087
3086 3088 3088 3085 3085 3083 3082 3080 3076 3072 3067 3063 3058 3054 3048 3045 3042 3038 3037 3035 3033 3032 3033 3034 3029 3029 3028 3026 3027 3026 3027 3030 3031 3034 3036 3040 3044 3050 3053 3058 3063 3066 3071 3074 3077 3080 3082
3074 3077 3078 3076 3076 3076 3076 3074 3071 3067 3063 3059 3054 3051 3046 3042 3040 3037 3036 3034 3033 3033 3032 3034 3031 3031 3028 3030 3031 3031 3033 3036 3037 3037 3041 3045 3047 3052 3058 3061 3063 3066 3070 3074 3078 3081 3084
3057 3062 3066 3066 3066 3067 3069 3068 3066 3063 3059 3055 3051 3048 3044 3041 3038 3036 3034 3033 3034 3035 3033 3033 3033 3033 3032 3033 3033 3035 3037 3040 3042 3042 3042 3047 3050 3052 3056 3061 3063 3067 3072 3076 3079 3082 3087
3036 3044 3050 3053 3055 3058 3059 3061 3060 3057 3054 3051 3047 3044 3041 3039 3037 3035 3033 3033 3035 3033 3035 3036 3034 3034 3034 3036 3036 3037 3039 3041 3043 3046 3048 3051 3054 3057 3058 3063 3067 3071 3074 3080 3086 3090 3091
3016 3022 3034 3041 3043 3048 3050 3054 3054 3052 3049 3046 3043 3041 3039 3036 3034 3033 3032 3032 3033 3034 3033 3034 3034 3033 3034 3034 3035 3038 3040 3041 3044 3048 3050 3054 3059 3059 3061 3065 3068 3073 3074 3077 3081 3086 3085
3005 3007 3019 3028 3033 3037 3040 3045 3047 3047 3044 3041 3039 3037 3036 3034 3032 3031 3032 3030 3030 3032 3034 3034 3037 3037 3035 3034 3039 3039 3040 3045 3046 3049 3053 3055 3058 3060 3063 3065 3069 3072 3074 3078 3078 3079 3078
2993 2995 3003 3013 3021 3026 3030 3035 3039 3039 3038 3036 3034 3032 3032 3031 3029 3029 3030 3029 3029 3031 3034 3036 3037 3037 3038 3038 3038 3040 3042 3044 3046 3050 3051 3055 3057 3060 3063 3067 3070 3071 3075 3077 3076 3081 3078
2979 2983 2988 2998 3008 3016 3021 3025 3030 3031 3032 3031 3029 3028 3028 3027 3027 3027 3026 3027 3029 3030 3032 3036 3037 3037 3038 3039 3040 3042 3043 3044 3046 3048 3051 3055 3057 3063 3064 3066 3068 3072 3073 3076 3079 3080 3080
2970 2970 2975 2984 2995 3005 3010 3016 3022 3024 3026 3025 3025 3024 3024 3024 3026 3024 3024 3025 3027 3030 3032 3034 3035 3037 3039 3040 3040 3042 3043 3043 3045 3049 3052 3053 3056 3060 3064 3064 3066 3069 3072 3075 3077 3080 3079
2962 2959 2967 2974 2987 2994 3001 3007 3014 3016 3019 3020 3020 3020 3019 3020 3020 3021 3022 3024 3026 3029 3032 3034 3035 3035 3037 3039 3041 3041 3041 3043 3044 3049 3051 3054 3055 3059 3063 3067 3066 3067 3069 3071 3074 3076 3077
2951 2951 2959 2966 2976 2986 2994 3001 3006 3009 3013 3015 3016 3016 3016 3016 3016 3018 3020 3023 3025 3028 3030 3032 3034 3034 3035 3037 3039 3040 3039 3041 3044 3046 3049 3052 3055 3056 3057 3058 3060 3061 3064 3069 3072 3072 3073
2942 2947 2952 2956 2969 2980 2987 2993 2998 3003 3006 3009 3010 3011 3012 3012 3013 3015 3018 3022 3024 3026 3028 3030 3032 3034 3037 3038 3040 3040 3040 3040 3042 3044 3049 3052 3053 3055 3056 3057 3057 3059 3060 3063 3066 3067 3068
2934 2940 2945 2950 2960 2975 2980 2986 2992 2996 3000 3003 3006 3007 3008 3009 3011 3013 3016 3019 3022 3025 3026 3028 3031 3033 3034 3036 3037 3039 3040 3041 3043 3045 3048 3050 3052 3053 3054 3055 3056 3056 3057 3058 3060 3062 3063
2933 2937 2938 2950 2959 2968 2974 2981 2986 2991 2996 2997 3001 3003 3005 3006 3008 3011 3013 3017 3019 3022 3024 3027 3030 3031 3033 3033 3036 3038 3040 3042 3043 3045 3046 3049 3050 3052 3053 3053 3054 3054 3051 3053 3055 3057 3059
2930 2931 2933 2935 2954 2963 2968 2975 2980 2986 2991 2994 2997 2999 3001 3004 3006 3008 3012 3015 3017 3020 3022 3024 3028 3030 3032 3034 3036 3039 3041 3042 3043 3044 3046 3048 3048 3050 3050 3052 3053 3048 3048 3049 3049 3052 3054
2925 2923 2926 2932 2939 2953 2963 2969 2974 2982 2986 2990 2992 2995 2997 2999 3002 3005 3008 3012 3014 3018 3020 3022 3025 3028 3030 3033 3036 3038 3041 3042 3042 3043 3044 3046 3048 3049 3050 3049 3048 3046 3046 3047 3048 3049 3049
2918 2920 2921 2928 2939 2947 2954 2964 2968 2977 2983 2986 2989 2992 2994 2997 2999 3001 3005 3008 3012 3016 3018 3021 3023 3025 3028 3031 3033 3035 3036 3038 3040 3041 3043 3045 3047 3049 3050 3049 3046 3044 3044 3044 3046 3047 3045
2916 2915 2922 2931 2939 2945 2950 2958 2964 2972 2978 2982 2985 2988 2991 2994 2997 2998 3001 3005 3008 3013 3016 3018 3021 3024 3027 3029 3032 3033 3036 3037 3038 3039 3040 3042 3044 3045 3047 3046 3044 3042 3044 3044 3045 3047 3042
2908 2909 2918 2928 2934 2939 2947 2955 2959 2967 2973 2978 2982 2984 2988 2991 2993 2996 2999 3003 3007 3010 3012 3016 3021 3022 3025 3027 3030 3032 3034 3036 3038 3038 3037 3038 3041 3041 3043 3044 3044 3041 3041 3043 3042 3039 3040
2905 2905 2911 2919 2926 2935 2945 2949 2955 2962 2970 2974 2977 2982 2985 2989 2992 2995 2998 3001 3005 3008 3011 3013 3015 3017 3021 3024 3027 3029 3031 3033 3035 3036 3037 3039 3039 3040 3041 3039 3038 3037 3037 3038 3039 3039 3038